EW2549 Weather Reports


Display with metric or nautical units.
time (UTC)temp
F
wind
direction
speed
MPH
gust
MPH
rain 1hr
in
rain 24hr
in
rain mn
in
humidity
%
barometer
mb
20260510021535 52 355 3.0 14.0 0.00 0.00 0.00 67 1010.8
20260510020034 53 344 4.0 14.0 0.00 0.00 0.00 65 1010.4
20260510014532 54 92 1.0 17.0 0.00 0.00 0.00 63 1009.9
20260510013029 55 345 3.0 14.0 0.00 0.00 0.00 60 1009.0
20260510011528 57 44 3.0 19.0 0.00 0.00 0.00 56 1008.2
20260510010024 61 56 5.0 19.0 0.00 0.00 0.00 49 1007.2
20260510004522 71 5 6.0 19.0 0.00 0.00 0.00 34 1006.1
20260510003021 74 61 0.0 2.0 0.00 0.00 0.00 21 1004.4
20260510001520 73 76 0.0 0.0 0.00 0.00 0.00 21 1004.0
20260510000020 73 76 0.0 0.0 0.00 0.00 0.00 22 1003.8
20260509234533 74 61 0.0 0.0 0.00 0.00 0.00 22 1003.8
20260509233031 73 54 0.0 7.0 0.00 0.00 0.00 22 1003.6
20260509231517 74 93 0.0 5.0 0.00 0.00 0.00 22 1003.2
20260509230017 73 182 0.0 7.0 0.00 0.00 0.00 23 1003.3
20260509224518 73 113 0.0 8.0 0.00 0.00 0.00 22 1003.3
20260509223017 73 91 0.0 4.0 0.00 0.00 0.00 21 1003.1
20260509221516 73 103 0.0 5.0 0.00 0.00 0.00 23 1003.2
20260509220020 73 125 0.0 4.0 0.00 0.00 0.00 23 1003.0
20260509214514 73 84 0.0 6.0 0.00 0.00 0.00 22 1002.9
20260509213013 74 90 0.0 4.0 0.00 0.00 0.00 20 1002.8
20260509211511 73 51 0.0 5.0 0.00 0.00 0.00 23 1003.1
20260509210010 72 71 0.0 6.0 0.00 0.00 0.00 23 1003.3
20260509204509 72 49 0.0 2.0 0.00 0.00 0.00 22 1003.3
20260509203007 74 49 0.0 5.0 0.00 0.00 0.00 22 1003.5
20260509201505 73 82 0.0 4.0 0.00 0.00 0.00 22 1003.7
20260509200004 75 40 0.0 3.0 0.00 0.00 0.00 24 1003.9
20260509194501 74 67 0.0 6.0 0.00 0.00 0.00 24 1004.2
20260509193101 74 71 0.0 3.0 0.00 0.00 0.00 24 1004.3
20260509191559 74 94 0.0 3.0 0.00 0.00 0.00 24 1004.5
20260509190110 74 40 0.0 5.0 0.00 0.00 0.00 27 1004.6
20260509184605 75 40 0.0 2.0 0.00 0.00 0.00 24 1004.8
20260509183057 75 46 0.0 2.0 0.00 0.00 0.00 25 1005.0
20260509181556 76 5 0.0 11.0 0.00 0.00 0.00 21 1005.0
20260509174555 75 304 5.0 18.0 0.00 0.00 0.00 18 1005.2
20260509173100 75 248 6.0 15.0 0.00 0.00 0.00 18 1005.1
20260509171553 74 350 0.0 21.0 0.00 0.00 0.00 21 1005.5
20260509170100 75 251 1.0 11.0 0.00 0.00 0.00 18 1005.3
20260509164550 74 341 0.0 6.0 0.00 0.00 0.00 20 1005.4
20260509163057 73 69 0.0 0.0 0.00 0.00 0.00 20 1005.4
20260509161551 72 312 0.0 4.0 0.00 0.00 0.00 20 1005.6
20260509160039 71 342 0.0 3.0 0.00 0.00 0.00 20 1005.7
20260509154539 69 19 0.0 2.0 0.00 0.00 0.00 21 1005.7
20260509153037 68 254 1.0 9.0 0.00 0.00 0.00 22 1005.8
20260509151530 67 203 4.0 11.0 0.00 0.00 0.00 21 1006.0
20260509150026 66 333 1.0 11.0 0.00 0.00 0.00 25 1006.2
20260509144522 64 248 11.0 18.0 0.00 0.00 0.00 24 1006.2
20260509143020 60 252 11.0 17.0 0.00 0.00 0.00 32 1006.1
20260509141523 58 260 11.0 18.0 0.00 0.00 0.00 34 1006.0
20260509140015 56 265 2.0 11.0 0.00 0.00 0.00 38 1006.1
20260509134515 56 267 0.0 7.0 0.00 0.00 0.00 41 1006.2
20260509133013 55 259 1.0 6.0 0.00 0.00 0.00 43 1006.2
20260509131513 54 243 0.0 0.0 0.00 0.00 0.00 46 1006.2
20260509124510 51 279 0.0 0.0 0.00 0.00 0.00 54 1006.0
20260509123009 51 308 0.0 0.0 0.00 0.00 0.00 53 1005.7
20260509121509 52 308 0.0 0.0 0.00 0.00 0.00 50 1005.5
20260509120007 51 331 0.0 0.0 0.00 0.00 0.00 46 1005.4
20260509114519 51 333 0.0 0.0 0.00 0.00 0.00 47 1005.2
20260509113007 52 323 0.0 0.0 0.00 0.00 0.00 49 1005.0
20260509111507 52 323 0.0 0.0 0.00 0.00 0.00 47 1005.0
20260509110006 54 250 0.0 0.0 0.00 0.00 0.00 45 1004.8
20260509104505 56 250 0.0 0.0 0.00 0.00 0.00 42 1004.7
20260509103005 58 250 0.0 0.0 0.00 0.00 0.00 37 1004.7
20260509101506 58 251 0.0 0.0 0.00 0.00 0.00 37 1004.9
20260509100003 58 254 0.0 2.0 0.00 0.00 0.00 37 1005.0
20260509094604 57 243 0.0 9.0 0.00 0.00 0.00 38 1005.0
20260509093056 53 259 7.0 17.0 0.00 0.00 0.00 46 1005.0
20260509091558 48 317 0.0 0.0 0.00 0.00 0.00 70 1004.9
20260509084550 49 233 0.0 0.0 0.00 0.00 0.00 69 1004.7
20260509083052 49 233 0.0 0.0 0.00 0.00 0.00 67 1004.8
20260509081544 50 231 0.0 0.0 0.00 0.00 0.00 65 1004.8
20260509080056 50 255 0.0 0.0 0.00 0.00 0.00 64 1005.0
20260509074539 51 293 0.0 0.0 0.00 0.00 0.00 62 1005.1
20260509073032 51 293 0.0 0.0 0.00 0.00 0.00 63 1005.2
20260509071530 51 267 0.0 0.0 0.00 0.00 0.00 63 1005.4
20260509070035 52 195 0.0 0.0 0.00 0.00 0.00 63 1005.2
20260509064526 52 195 0.0 0.0 0.00 0.00 0.00 65 1005.3
20260509063024 52 195 0.0 0.0 0.00 0.00 0.00 65 1005.4
20260509061522 53 195 0.0 0.0 0.00 0.00 0.00 64 1005.7
20260509060021 53 195 0.0 0.0 0.00 0.00 0.00 63 1005.8
20260509054616 53 201 0.0 0.0 0.00 0.00 0.00 63 1005.9
20260509053024 53 201 0.0 0.0 0.00 0.00 0.00 62 1006.2
20260509051515 53 221 0.0 0.0 0.00 0.00 0.00 63 1006.4
20260509050035 54 227 0.0 0.0 0.00 0.00 0.00 63 1006.6
20260509044514 54 227 0.0 0.0 0.00 0.00 0.00 63 1006.8
20260509043026 54 227 0.0 0.0 0.00 0.00 0.00 62 1007.0
20260509041513 54 174 0.0 0.0 0.00 0.00 0.00 63 1007.3
20260509040013 55 135 0.0 0.0 0.00 0.00 0.00 62 1007.4
20260509034512 56 135 0.0 0.0 0.00 0.00 0.00 60 1007.6
20260509033017 57 135 0.0 0.0 0.00 0.00 0.00 59 1007.7
20260509031511 58 135 0.0 0.0 0.00 0.00 0.00 56 1007.5
20260509030018 59 135 0.0 0.0 0.00 0.00 0.00 51 1007.2
20260509024509 60 135 0.0 0.0 0.00 0.00 0.00 48 1007.0